INTELSAT 33E DEB, 61996

Orbit data source: Space-Track

INTELSAT 33E DEB, 61996 is space debris in GEO originally from a launch on Wed, 24 Aug 2016 UTC launched from the French Guiana (FRGUI). Debris objects in space refer to the collection of defunct objects orbiting the Earth. Examples of debris include non-operational satellites, rocket bodies, and fragments generated from explosions, collisions, or faulty payload assembly.

Not visible in the next 10 days
Identifier
61996, 2016-053N
Orbit
GEO
Country
Flag of USUS / ITSO
Related business
Manufacturer
Boeing/ES
Mission
Spacecraft
Bus & Motor
Unknown
Mass
Unknown
Launch date (UTC)
2016-08-24 (10 years ago)
Launch vehicle
Unknown
Launch site
French Guiana (FRGUI)
Object type
Payload
Rocket body
Debris
Shape & HBR
Unknown shape, 1.1 m
Radar Cross Section
RCS unknown

Expand to show TLE details & history
Last TLE update: 1 day ago

TLE from 1 day ago
0 INTELSAT 33E DEB
1 61996U 16053N   26120.55458554  .00000103  00000-0  00000-0 0  9992
2 61996   1.3148  66.8833 0058451 330.3518  29.1408  1.00598338  5624
Epoch: 2026-04-30T13:18Z
TLE epoch observation values (Epoch: 2026-04-30T13:18:36.190Z)
Latitude
-0.00001°
Longitude
8.55425°
Altitude
35,479.181 km
Speed
3.094 km/s
True Right ascension
04h 26m 49s
True Declination
0° 00' 00"
Sunlit
Object was in daylight at epoch
Visualization orbit readout
Latitude
Unknown
Longitude
Unknown
Altitude
Unknown
Speed
Unknown
Apparent Right ascension
Unknown
Apparent Declination
Unknown
Sunlit
N/A
Visualization observer readout
Local Sidereal Time
01:15:36
Azimuth
Unknown
Elevation
Unknown
Doppler factor
Unknown
Orbital elements
Apogee altitude
35,942.3 km
Perigee altitude
35,450.44 km
Semi-major axis
42,074.507 km
Eccentricity
0.00585
Inclination
1.3148°
RAAN
66.8833°
Arg. of periapsis
330.3518°
True anomaly
29.46906°
Mean anomaly
29.1408°
Eccentric anomaly
29.30472°
Mean motion
0.25149 °/min
Orbital period
1,431.49 mins
BSTAR
0
Loading maneuver chart data...
Computing Atmospheric mass density...
Loading historical data...
Loading historical data...
Loading historical data...
Loading historical data...
Loading historical data...
Loading historical data...
Loading historical data...

Documentation

Showing up to 5 results
|